TimeCEST,TemperatureF,Dew PointF,Humidity,Sea Level PressureIn,VisibilityMPH,Wind Direction,Wind SpeedMPH,Gust SpeedMPH,PrecipitationIn,Events,Conditions,WindDirDegrees,DateUTC
12:00 AM,55,50,77,30.16,31,West,4.5,,,,Scattered Clouds,270,2013-07-13 22:00:00
12:00 AM,55.4,50.0,82,30.15,-9999.0,WNW,5.8,-,N/A,,Clear,290,2013-07-13 22:00:00
12:30 AM,53.6,50.0,88,30.15,-9999.0,West,6.9,-,N/A,,Clear,270,2013-07-13 22:30:00
1:00 AM,54,50,80,30.17,31,WSW,3.5,,,,Clear,250,2013-07-13 23:00:00
1:00 AM,53.6,50.0,88,30.15,-9999.0,West,9.2,-,N/A,,Clear,260,2013-07-13 23:00:00
1:30 AM,53.6,50.0,88,30.15,-9999.0,West,9.2,-,N/A,,Clear,260,2013-07-13 23:30:00
2:00 AM,53,49,83,30.17,31,WSW,8.9,,,,Clear,250,2013-07-14 00:00:00
2:00 AM,53.6,50.0,88,30.15,-9999.0,West,11.5,-,N/A,,Clear,260,2013-07-14 00:00:00
2:30 AM,51.8,48.2,88,30.15,-9999.0,West,11.5,-,N/A,,Clear,260,2013-07-14 00:30:00
3:00 AM,52,49,85,30.17,25,WSW,8.9,,,,Clear,250,2013-07-14 01:00:00
3:00 AM,51.8,48.2,88,30.15,-9999.0,West,11.5,-,N/A,,Clear,260,2013-07-14 01:00:00
3:30 AM,51.8,48.2,88,30.15,-9999.0,West,10.4,-,N/A,,Clear,260,2013-07-14 01:30:00
4:00 AM,51,48,87,30.17,25,West,8.9,,,,Scattered Clouds,260,2013-07-14 02:00:00
4:00 AM,51.8,48.2,88,30.15,-9999.0,West,10.4,-,N/A,,Clear,270,2013-07-14 02:00:00
4:30 AM,51.8,48.2,88,30.15,-9999.0,West,10.4,-,N/A,,Clear,270,2013-07-14 02:30:00
5:00 AM,51,48,87,30.16,22,WSW,8.9,,,,Scattered Clouds,250,2013-07-14 03:00:00
5:00 AM,51.8,48.2,88,30.15,-9999.0,West,9.2,-,N/A,,Clear,260,2013-07-14 03:00:00
5:30 AM,51.8,48.2,88,30.15,-9999.0,West,8.1,-,N/A,,Clear,270,2013-07-14 03:30:00
6:00 AM,52,49,85,30.17,22,WSW,6.7,,,,,250,2013-07-14 04:00:00
6:00 AM,51.8,48.2,88,30.15,-9999.0,WSW,8.1,-,N/A,,Clear,250,2013-07-14 04:00:00
6:30 AM,53.6,50.0,88,30.15,-9999.0,WSW,8.1,-,N/A,,Clear,250,2013-07-14 04:30:00
7:00 AM,56,51,80,30.17,22,WSW,6.7,,,,,250,2013-07-14 05:00:00
7:00 AM,55.4,51.8,88,30.15,-9999.0,West,6.9,-,N/A,,Clear,260,2013-07-14 05:00:00
7:30 AM,59.0,53.6,82,30.15,-9999.0,West,8.1,-,N/A,,Clear,260,2013-07-14 05:30:00
8:00 AM,60,53,71,30.15,22,West,6.7,,,,,260,2013-07-14 06:00:00
8:00 AM,60.8,53.6,77,30.15,-9999.0,West,6.9,-,N/A,,Clear,260,2013-07-14 06:00:00
8:30 AM,62.6,53.6,72,30.15,-9999.0,West,8.1,-,N/A,,Clear,260,2013-07-14 06:30:00
9:00 AM,65,54,59,30.14,22,West,6.7,,,,,270,2013-07-14 07:00:00
9:00 AM,64.4,53.6,68,30.15,-9999.0,West,6.9,-,N/A,,Clear,270,2013-07-14 07:00:00
9:30 AM,66.2,55.4,68,30.15,-9999.0,West,6.9,-,N/A,,Clear,270,2013-07-14 07:30:00
10:00 AM,67,54,52,30.14,22,NNW,6.7,,,,Scattered Clouds,330,2013-07-14 08:00:00
10:00 AM,66.2,53.6,64,30.15,6.2,NW,8.1,-,N/A,,Partly Cloudy,310,2013-07-14 08:00:00
10:30 AM,68.0,53.6,60,30.15,6.2,NNW,9.2,-,N/A,,Partly Cloudy,340,2013-07-14 08:30:00
11:00 AM,67,54,55,30.14,22,North,6.7,,,,Scattered Clouds,0,2013-07-14 09:00:00
11:00 AM,68.0,53.6,60,30.15,6.2,NW,5.8,-,N/A,,Partly Cloudy,320,2013-07-14 09:00:00
11:30 AM,68.0,53.6,60,30.15,6.2,NW,11.5,-,N/A,,Partly Cloudy,320,2013-07-14 09:30:00
12:00 PM,69,55,51,30.14,22,NNW,8.9,,,,Partly Cloudy,330,2013-07-14 10:00:00
12:00 PM,69.8,55.4,60,30.15,6.2,NW,11.5,-,N/A,,Partly Cloudy,310,2013-07-14 10:00:00
12:30 PM,68.0,53.6,60,30.15,6.2,NW,11.5,-,N/A,,Scattered Clouds,320,2013-07-14 10:30:00
1:00 PM,69,52,45,30.13,22,NNW,11.2,,,,Partly Cloudy,340,2013-07-14 11:00:00
1:00 PM,68.0,53.6,60,30.15,6.2,NW,13.8,-,N/A,,Mostly Cloudy,320,2013-07-14 11:00:00
1:30 PM,71.6,51.8,50,30.15,6.2,NNW,12.7,-,N/A,,Partly Cloudy,330,2013-07-14 11:30:00
2:00 PM,72,53,40,30.11,22,WNW,6.7,,,,Scattered Clouds,300,2013-07-14 12:00:00
2:00 PM,71.6,51.8,50,30.15,6.2,WNW,9.2,-,N/A,,Partly Cloudy,300,2013-07-14 12:00:00
2:30 PM,73.4,51.8,47,30.12,6.2,North,9.2,-,N/A,,Partly Cloudy,350,2013-07-14 12:30:00
3:00 PM,73,54,40,30.09,22,NNW,8.9,,,,Scattered Clouds,340,2013-07-14 13:00:00
3:00 PM,73.4,55.4,53,30.12,6.2,NNW,11.5,-,N/A,,Partly Cloudy,340,2013-07-14 13:00:00
3:30 PM,73.4,55.4,53,30.12,6.2,North,8.1,-,N/A,,Partly Cloudy,350,2013-07-14 13:30:00
4:00 PM,73,52,37,30.09,25,NNW,8.9,,,,Scattered Clouds,340,2013-07-14 14:00:00
4:00 PM,73.4,51.8,47,30.12,6.2,NNW,11.5,-,N/A,,Partly Cloudy,340,2013-07-14 14:00:00
4:30 PM,73.4,51.8,47,30.12,6.2,NNW,8.1,-,N/A,,Partly Cloudy,340,2013-07-14 14:30:00
5:00 PM,74,54,40,30.08,25,North,8.9,,,,Scattered Clouds,350,2013-07-14 15:00:00
5:00 PM,73.4,55.4,53,30.12,-9999.0,NNW,9.2,-,N/A,,Clear,340,2013-07-14 15:00:00
5:30 PM,73.4,53.6,50,30.12,-9999.0,NNW,9.2,-,N/A,,Clear,340,2013-07-14 15:30:00
6:00 PM,72,54,44,30.08,25,North,8.9,,,,Scattered Clouds,350,2013-07-14 16:00:00
6:00 PM,71.6,53.6,53,30.12,6.2,North,9.2,-,N/A,,Partly Cloudy,350,2013-07-14 16:00:00
6:30 PM,71.6,53.6,53,30.12,-9999.0,North,10.4,-,N/A,,Clear,350,2013-07-14 16:30:00
7:00 PM,70,54,47,30.08,22,North,6.7,,,,Scattered Clouds,350,2013-07-14 17:00:00
7:00 PM,69.8,55.4,60,30.09,-9999.0,North,8.1,-,N/A,,Clear,360,2013-07-14 17:00:00
7:30 PM,68.0,55.4,64,30.12,-9999.0,North,8.1,-,N/A,,Clear,360,2013-07-14 17:30:00
8:00 PM,68,56,57,30.09,22,North,8.9,,,,Scattered Clouds,350,2013-07-14 18:00:00
8:00 PM,68.0,55.4,64,30.12,-9999.0,North,8.1,-,N/A,,Clear,360,2013-07-14 18:00:00
8:30 PM,66.2,57.2,73,30.12,-9999.0,North,9.2,-,N/A,,Clear,360,2013-07-14 18:30:00
9:00 PM,66,56,62,30.09,22,NNE,6.7,,,,Mostly Cloudy,30,2013-07-14 19:00:00
9:00 PM,66.2,55.4,68,30.12,-9999.0,North,6.9,-,N/A,,Clear,10,2013-07-14 19:00:00
9:30 PM,66.2,55.4,68,30.12,-9999.0,NNE,5.8,-,N/A,,Clear,20,2013-07-14 19:30:00
10:00 PM,65,55,62,30.10,22,NNE,6.7,,,,Mostly Cloudy,30,2013-07-14 20:00:00
10:00 PM,64.4,55.4,73,30.12,-9999.0,NNE,4.6,-,N/A,,Clear,30,2013-07-14 20:00:00
10:30 PM,64.4,55.4,73,30.12,-9999.0,Variable,2.3,-,N/A,,Clear,0,2013-07-14 20:30:00
11:00 PM,63,56,71,30.11,22,North,4.5,,,,Mostly Cloudy,350,2013-07-14 21:00:00
11:00 PM,64.4,55.4,73,30.12,-9999.0,NNE,3.5,-,N/A,,Clear,30,2013-07-14 21:00:00
11:30 PM,62.6,55.4,77,30.12,-9999.0,North,4.6,-,N/A,,Clear,350,2013-07-14 21:30:00